TimeEDT,TemperatureF,Dew PointF,Humidity,Sea Level PressureIn,VisibilityMPH,Wind Direction,Wind SpeedMPH,Gust SpeedMPH,PrecipitationIn,Events,Conditions,WindDirDegrees,DateUTC
12:15 AM,66.2,64.4,94,30.14,2.0,Calm,Calm,-,N/A,,Mostly Cloudy,0,2013-06-20 04:15:00
12:35 AM,64.4,64.4,100,30.15,1.5,Calm,Calm,-,N/A,,Mist,0,2013-06-20 04:35:00
12:55 AM,64.4,64.4,100,30.16,2.0,Calm,Calm,-,N/A,,Clear,0,2013-06-20 04:55:00
1:15 AM,64.4,64.4,100,30.16,2.0,Calm,Calm,-,N/A,,Clear,0,2013-06-20 05:15:00
1:35 AM,64.4,62.6,94,30.16,1.0,Calm,Calm,-,N/A,,Mist,0,2013-06-20 05:35:00
1:55 AM,64.4,62.6,94,30.17,2.0,Calm,Calm,-,N/A,,Clear,0,2013-06-20 05:55:00
2:15 AM,64.4,64.4,100,30.16,0.5,Calm,Calm,-,N/A,Fog,Fog,0,2013-06-20 06:15:00
2:35 AM,64.4,64.4,100,30.16,1.0,Calm,Calm,-,N/A,,Overcast,0,2013-06-20 06:35:00
2:55 AM,64.4,64.4,100,30.16,3.0,Calm,Calm,-,N/A,,Overcast,0,2013-06-20 06:55:00
3:15 AM,66.2,64.4,94,30.17,3.0,Calm,Calm,-,N/A,,Overcast,0,2013-06-20 07:15:00
3:35 AM,66.2,66.2,100,30.18,5.0,Calm,Calm,-,N/A,,Overcast,0,2013-06-20 07:35:00
3:55 AM,66.2,64.4,94,30.18,4.0,Calm,Calm,-,N/A,,Overcast,0,2013-06-20 07:55:00
4:15 AM,66.2,64.4,94,30.18,4.0,Calm,Calm,-,N/A,,Overcast,0,2013-06-20 08:15:00
4:35 AM,66.2,64.4,94,30.18,5.0,Calm,Calm,-,N/A,,Overcast,0,2013-06-20 08:35:00
4:55 AM,66.2,64.4,94,30.18,5.0,Calm,Calm,-,N/A,,Overcast,0,2013-06-20 08:55:00
5:15 AM,66.2,64.4,94,30.19,5.0,Calm,Calm,-,N/A,,Overcast,0,2013-06-20 09:15:00
5:35 AM,64.4,64.4,100,30.19,4.0,Calm,Calm,-,N/A,,Mostly Cloudy,0,2013-06-20 09:35:00
5:55 AM,66.2,64.4,94,30.20,5.0,Calm,Calm,-,N/A,,Overcast,0,2013-06-20 09:55:00
6:15 AM,64.4,62.6,94,30.20,5.0,Calm,Calm,-,N/A,,Mostly Cloudy,0,2013-06-20 10:15:00
6:35 AM,64.4,64.4,100,30.21,4.0,Calm,Calm,-,N/A,,Overcast,0,2013-06-20 10:35:00
6:55 AM,66.2,64.4,94,30.22,7.0,Calm,Calm,-,N/A,,Mostly Cloudy,0,2013-06-20 10:55:00
7:15 AM,68.0,64.4,88,30.22,7.0,Calm,Calm,-,N/A,,Mostly Cloudy,0,2013-06-20 11:15:00
7:35 AM,68.0,64.4,88,30.22,7.0,Calm,Calm,-,N/A,,Overcast,0,2013-06-20 11:35:00
7:55 AM,66.2,64.4,94,30.23,10.0,Calm,Calm,-,N/A,,Mostly Cloudy,0,2013-06-20 11:55:00
8:15 AM,66.2,64.4,94,30.24,10.0,Calm,Calm,-,N/A,,Mostly Cloudy,0,2013-06-20 12:15:00
8:35 AM,69.8,62.6,78,30.25,10.0,Calm,Calm,-,N/A,,Scattered Clouds,0,2013-06-20 12:35:00
8:55 AM,69.8,55.4,60,30.25,10.0,SE,3.5,-,N/A,,Mostly Cloudy,140,2013-06-20 12:55:00
9:15 AM,71.6,55.4,57,30.25,10.0,Calm,Calm,-,N/A,,Overcast,0,2013-06-20 13:15:00
9:35 AM,73.4,53.6,50,30.25,10.0,SE,3.5,-,N/A,,Mostly Cloudy,140,2013-06-20 13:35:00
9:55 AM,73.4,53.6,50,30.26,10.0,SE,4.6,-,N/A,,Scattered Clouds,130,2013-06-20 13:55:00
10:15 AM,73.4,51.8,47,30.26,1.5,SSE,3.5,-,N/A,,Haze,160,2013-06-20 14:15:00
10:35 AM,75.2,50.0,41,30.26,10.0,ESE,3.5,-,N/A,,Overcast,110,2013-06-20 14:35:00
10:55 AM,77.0,51.8,41,30.26,10.0,East,6.9,-,N/A,,Scattered Clouds,100,2013-06-20 14:55:00
11:15 AM,75.2,53.6,47,30.26,10.0,Calm,Calm,-,N/A,,Clear,0,2013-06-20 15:15:00
11:35 AM,78.8,53.6,42,30.26,10.0,East,5.8,-,N/A,,Clear,100,2013-06-20 15:35:00
11:55 AM,78.8,51.8,39,30.26,10.0,SSE,3.5,-,N/A,,Clear,150,2013-06-20 15:55:00
12:15 PM,78.8,51.8,39,30.26,10.0,Calm,Calm,-,N/A,,Scattered Clouds,0,2013-06-20 16:15:00
12:35 PM,77.0,51.8,41,30.26,10.0,Calm,Calm,-,N/A,,Scattered Clouds,0,2013-06-20 16:35:00
12:55 PM,80.6,53.6,39,30.26,10.0,ESE,4.6,-,N/A,,Scattered Clouds,110,2013-06-20 16:55:00
1:15 PM,80.6,53.6,39,30.26,10.0,Calm,Calm,-,N/A,,Scattered Clouds,0,2013-06-20 17:15:00
1:35 PM,78.8,53.6,42,30.25,10.0,Calm,Calm,-,N/A,,Mostly Cloudy,0,2013-06-20 17:35:00
1:55 PM,78.8,55.4,44,30.25,10.0,SE,3.5,-,N/A,,Overcast,140,2013-06-20 17:55:00
2:15 PM,80.6,53.6,39,30.24,10.0,SE,3.5,-,N/A,,Overcast,140,2013-06-20 18:15:00
2:35 PM,80.6,55.4,42,30.24,10.0,Calm,Calm,-,N/A,,Overcast,0,2013-06-20 18:35:00
2:55 PM,82.4,55.4,39,30.24,10.0,Calm,Calm,-,N/A,,Mostly Cloudy,0,2013-06-20 18:55:00
3:15 PM,82.4,55.4,39,30.24,10.0,ESE,5.8,-,N/A,,Mostly Cloudy,120,2013-06-20 19:15:00
3:35 PM,80.6,55.4,42,30.23,10.0,East,3.5,-,N/A,,Mostly Cloudy,90,2013-06-20 19:35:00
3:55 PM,80.6,55.4,42,30.23,10.0,Calm,Calm,-,N/A,,Scattered Clouds,0,2013-06-20 19:55:00
4:15 PM,82.4,55.4,39,30.22,7.0,East,4.6,-,N/A,,Scattered Clouds,90,2013-06-20 20:15:00
4:35 PM,82.4,57.2,42,30.21,10.0,East,4.6,-,N/A,,Clear,90,2013-06-20 20:35:00
4:55 PM,80.6,57.2,45,30.21,10.0,East,3.5,-,N/A,,Scattered Clouds,100,2013-06-20 20:55:00
5:15 PM,80.6,57.2,45,30.21,10.0,Calm,Calm,-,N/A,,Clear,0,2013-06-20 21:15:00
5:35 PM,82.4,57.2,42,30.20,10.0,Calm,Calm,-,N/A,,Scattered Clouds,0,2013-06-20 21:35:00
5:55 PM,82.4,55.4,39,30.20,10.0,East,4.6,-,N/A,,Mostly Cloudy,90,2013-06-20 21:55:00
6:15 PM,80.6,57.2,45,30.20,10.0,ESE,3.5,-,N/A,,Scattered Clouds,120,2013-06-20 22:15:00
6:35 PM,80.6,57.2,45,30.20,10.0,East,4.6,-,N/A,,Clear,100,2013-06-20 22:35:00
6:55 PM,80.6,57.2,45,30.20,10.0,East,3.5,-,N/A,,Clear,80,2013-06-20 22:55:00
7:15 PM,80.6,60.8,51,30.21,10.0,Calm,Calm,-,N/A,,Clear,0,2013-06-20 23:15:00
7:35 PM,77.0,62.6,61,30.21,10.0,Calm,Calm,-,N/A,,Clear,0,2013-06-20 23:35:00
7:55 PM,73.4,62.6,69,30.22,10.0,Calm,Calm,-,N/A,,Clear,0,2013-06-20 23:55:00
8:15 PM,73.4,60.8,65,30.22,10.0,Calm,Calm,-,N/A,,Clear,0,2013-06-21 00:15:00
8:35 PM,73.4,60.8,65,30.22,10.0,Calm,Calm,-,N/A,,Clear,0,2013-06-21 00:35:00
8:55 PM,73.4,60.8,65,30.23,10.0,Calm,Calm,-,N/A,,Clear,0,2013-06-21 00:55:00
9:15 PM,73.4,60.8,65,30.23,10.0,Calm,Calm,-,N/A,,Clear,0,2013-06-21 01:15:00
9:35 PM,71.6,59.0,64,30.23,10.0,Calm,Calm,-,N/A,,Clear,0,2013-06-21 01:35:00
9:55 PM,71.6,57.2,60,30.24,10.0,Calm,Calm,-,N/A,,Clear,0,2013-06-21 01:55:00
10:15 PM,69.8,55.4,60,30.25,10.0,Calm,Calm,-,N/A,,Clear,0,2013-06-21 02:15:00
10:35 PM,69.8,53.6,56,30.25,10.0,Calm,Calm,-,N/A,,Clear,0,2013-06-21 02:35:00
10:55 PM,69.8,51.8,53,30.25,10.0,Calm,Calm,-,N/A,,Clear,0,2013-06-21 02:55:00
11:15 PM,68.0,50.0,52,30.26,10.0,Calm,Calm,-,N/A,,Clear,0,2013-06-21 03:15:00
11:35 PM,66.2,51.8,60,30.26,10.0,Calm,Calm,-,N/A,,Clear,0,2013-06-21 03:35:00
11:55 PM,66.2,51.8,60,30.26,10.0,Calm,Calm,-,N/A,,Mostly Cloudy,0,2013-06-21 03:55:00